Simultaneous Nadir Overpasses (SNOs) Predictions

Prediction of SNOs between LANDSAT-8 and METOP-A Satellite Orbit:

Table of predicted SNOs for the next 14.0 days since TLE Epoch: 3/9/2015
Index Date (LANDSAT-8) Time (LANDSAT-8) Lat,Lon (LANDSAT-8) SZA (LANDSAT-8 ) Date (METOP-A) Time (METOP-A) Lat,Lon (METOP-A) SZA (METOP-A ) Distance(km) Time Diff (sec)
1 03/11/2015 05:33:39 -81.11, -44.18 93.35 03/11/2015 05:33:08 -81.11, -44.34 93.37 2.82 31
2 03/11/2015 06:23:04 81.14, 123.90 86.71 03/11/2015 06:23:46 81.14, 123.97 86.74 1.31 42
3 03/14/2015 01:07:49 -81.13, 22.50 94.40 03/14/2015 01:07:28 -81.13, 22.54 94.40 0.68 21
4 03/14/2015 01:57:14 81.15,-169.45 85.65 03/14/2015 01:58:07 81.15,-169.56 85.66 2.10 53
5 03/16/2015 20:42:00 -81.13, 88.98 95.48 03/16/2015 20:41:50 -81.13, 88.99 95.49 0.16 10
6 03/16/2015 21:31:25 81.15,-103.00 84.57 03/16/2015 21:32:29 81.15,-103.15 84.57 2.82 64
7 03/19/2015 15:26:45 81.09, -12.74 83.37 03/19/2015 15:25:33 81.10, -12.82 83.34 1.32 72
8 03/19/2015 16:16:10 -81.14, 155.61 96.54 03/19/2015 16:16:11 -81.14, 155.74 96.53 2.18 1
9 03/19/2015 17:04:58 81.77, -21.67 85.47 03/19/2015 17:06:11 81.35, -21.16 85.31 47.41 73
10 03/22/2015 11:00:53 81.11, 54.03 82.33 03/22/2015 10:59:52 81.12, 54.21 82.32 3.13 61




NCC Satellite Simultaneous Nadir Overpasses (SNOs) Prediction Service
